Location: Unspecified
(0.0000°N, 0.0000°E)
Time: 20:23:32
(UTC+00:00)

OAO 1 - Pass Details

Date: 17 June 2023
Orbit: 773 x 782 km, 35.0° (Epoch: 01 October)

Event Time Altitude Azimuth Distance (km) Brightness Sun altitude
Rises 19:13:47 0° 233° (SW) 3,237 8.1 -16.7°
Reaches altitude 10° 19:16:15 10° 234° (SW) 2,308 7.4 -17.2°
Maximum altitude 19:21:43 87° 321° (NW) 774 4.5 -18.5°
Enters shadow 19:27:06 10° 52° (NE) 2,276 6.7 -19.7°
